Location: Sungai Leset Besar
(2.6333°N, 113.4167°E)
Time: 22:04:24
(UTC+00:00)

Daily predictions for brighter satellites

Satellite Brightness Start Highest point End
(mag) Time Altitude Azimuth Time Altitude Azimuth Time Altitude Azimuth
GPS 2-15 Rocket1 3.1 12:01:48 10° WNW 12:06:35 70° SSW 12:06:57 66° SSE
Delta 202 4.3 12:00:18 10° WSW 12:06:45 84° SSE 12:11:29 31° ENE
CZ-4B DEB 4.1 12:07:03 46° SSE 12:08:45 77° ENE 12:14:14 10° N
Cosmos 2151 4.2 12:05:04 10° N 12:07:17 29° NNE 12:07:17 29° NNE
FUSE 3.9 12:03:55 10° WNW 12:09:17 75° SSW 12:10:03 63° SSE
Cosmos 2298 Rocket 4.1 12:09:04 10° NNW 12:14:21 75° WSW 12:15:54 46° S
Hubble Space Telescope 2.7 12:14:45 10° SW 12:16:08 20° SW 12:16:08 20° SW
Resurs 1-3 3.7 12:19:48 69° NW 12:19:48 69° NW 12:23:44 10° NNW
Ariane H10 2.9 12:15:17 10° W 12:23:39 74° NW 12:23:39 74° NW
ARIANE 5 DEB (SYLDA) 2.9 12:16:56 10° W 12:23:52 65° WNW 12:23:52 65° WNW
Centaur D AC-29 4.1 12:23:02 10° NNW 12:24:33 12° N 12:26:24 10° NNE
Cosmos 1680 Rocket 3.9 12:26:19 53° NNE 12:26:19 53° NNE 12:30:19 10° NNE
Palapa 6 Rocket 3.6 12:18:48 10° WSW 12:24:35 70° SSW 12:24:35 70° SSW
SL-16 R/B 2.3 12:26:27 10° SSW 12:32:03 70° WNW 12:37:40 10° N
Cosmos 2233 Rocket 4.2 12:26:06 10° N 12:32:22 70° W 12:34:21 45° SSW
Ariane H10+ 4.3 12:40:09 10° WNW 12:44:37 68° N 22:09:04 10° E
SeaSat 1 4.1 12:55:23 29° NNW 12:55:23 29° NNW 12:57:44 10° NNW
ARIANE 5 R/B 3.6 12:52:30 10° W 13:01:44 37° WSW 13:01:44 37° WSW
Milstar 3 3.9 13:07:04 10° WNW 13:14:58 57° SSW 13:14:58 57° SSW
Centaur D-1AR AC-39 4.4 13:12:46 10° W 13:13:46 16° WNW 13:13:46 16° WNW
ATLAS 5 CENTAUR R/B 4.3 13:10:14 10° N 13:12:23 22° N 13:12:23 22° N
ATLAS 5 CENTAUR R/B 4.5 17:21:40 10° WNW 18:23:02 69° NNE 18:33:08 10° E
H-2A R/B 4.3 19:01:04 35° NNE 19:02:34 37° NE 19:14:44 10° ESE
Ariane H10+ 4.5 19:44:24 54° WSW 19:50:02 73° S 20:00:28 10° E
H-2A R/B 3.8 19:45:58 10° NE 19:50:32 28° ESE 19:51:38 26° ESE
COSMOS 2455 3.8 19:51:45 39° ESE 19:52:05 39° ESE 19:57:36 10° NE
SL-16 R/B 3.1 19:47:05 10° N 19:52:26 45° ENE 19:57:48 10° SE
ARIANE 5 R/B 3.5 20:08:31 66° SW 20:09:17 72° S 20:51:09 10° E
ARIANE 5 R/B 3.5 20:08:31 67° SW 20:09:18 72° S 20:51:08 10° E
ARIANE 5 R/B 3.5 20:08:31 66° SW 20:09:18 72° S 20:51:09 10° E
ARIANE 5 R/B 3.5 20:08:30 66° SW 20:09:18 72° S 20:51:08 10° E
ARIANE 5 R/B 3.5 20:08:31 66° SW 20:09:18 72° S 20:51:08 10° E
Cosmos 1354 Rocket 4.4 20:09:37 57° ESE 20:09:41 57° ESE 20:14:52 10° NNE
CZ-4C R/B 3.1 20:13:13 28° E 20:13:13 28° E 20:16:05 10° NE
GPS 2-17 Rocket1 4.1 20:15:40 40° E 20:15:40 40° E 20:18:35 10° ESE
Cosmos 2227 Rocket 4.2 20:11:17 11° SSE 20:15:25 24° ESE 20:19:54 10° NE
Cosmos 2360 Rocket 3.8 20:14:10 10° NNE 20:19:11 33° ENE 20:24:11 10° SE
ARIANE 5 R/B 3.7 19:47:47 10° W 20:22:39 84° S 20:28:42 10° E
Cosmos 1777 Rocket 3.8 20:25:21 81° NW 20:25:21 81° NW 20:30:26 10° N
Cosmos 1814 Rocket 4.2 20:22:15 10° N 20:27:28 69° ENE 20:32:45 10° SSE
ASTEX 1 3.3 20:28:44 72° S 20:29:15 88° WSW 20:34:13 10° N
deb Ariane 3.7 20:29:50 39° NNE 20:29:50 39° NNE 20:34:21 10° E
Cosmos 1975 Rocket 3.1 20:30:08 75° E 20:30:08 75° E 20:34:24 10° N
Cosmos 1939 Rocket 3.3 20:33:33 10° NNE 20:37:28 57° ESE 20:38:35 41° SSE
Cosmos 2297 Rocket 2.0 20:37:47 51° SW 20:39:10 75° WNW 20:44:47 10° N
USA 215 4.3 20:34:13 10° N 20:39:26 26° NW 20:40:13 26° WNW
Cosmos 2333 Rocket 3.2 20:34:46 10° N 20:40:16 48° ENE 20:45:47 10° SSE
Cosmos 1959 Rocket 4.5 20:37:15 12° S 20:42:53 79° E 20:48:59 10° N
SL-12 R/B(2) 3.9 20:39:30 29° SSW 20:43:42 89° WNW 20:51:28 10° NNE
CBERS-1 3.9 20:40:28 10° N 20:45:31 67° WNW 20:47:08 42° SW
Cosmos 2341 Rocket 4.0 20:45:41 29° SSW 20:48:58 61° W 20:55:08 10° N
Cosmos 405 Rocket 2.9 20:46:09 10° NNW 20:49:01 50° NW 20:49:01 50° NW
Cosmos 1484 Rocket 3.3 20:50:43 10° N 20:53:41 39° NW 20:53:41 39° NW
Cosmos 2322 Rocket 2.1 20:48:41 10° NNW 20:54:18 70° WSW 20:59:57 10° S
Meteor 1-11 4.1 20:49:54 16° S 20:54:25 83° W 21:00:03 10° N
CZ-3C R/B 3.0 20:56:36 13° S 20:58:54 20° SE 21:05:57 10° E
Cosmos 864 Rocket 4.5 20:58:22 15° SSW 21:03:28 57° W 21:09:31 10° N
Nadezhda 3 Rocket 4.2 20:59:22 10° NNW 21:05:22 47° W 21:11:21 10° SSW
Cosmos 2366 rocket 4.1 21:00:40 14° SSW 21:05:56 54° W 21:12:05 10° N
Cosmos 1821 Rocket 4.2 21:01:08 10° S 21:07:23 74° E 21:13:31 10° N
Cosmos 1339 Rocket 4.5 21:03:28 10° N 21:09:50 81° W 21:16:15 10° S
FengYun 1-2 T 4.3 21:06:48 10° NNE 21:12:17 84° ESE 21:17:51 10° S
ARIANE 42L R/B 3.6 21:11:13 24° SW 21:12:53 38° SSE 21:21:33 10° E
H-2A R/B 4.2 21:04:40 10° WNW 21:14:36 72° SSW 21:33:48 10° SE
Cosmos 1455 Rocket 3.1 21:14:46 10° N 21:19:09 83° E 21:23:35 10° S
Cosmos 990 Rocket 4.1 21:21:26 10° SSW 21:26:31 54° WNW 21:31:33 10° N
CENTAUR R/B 2.3 21:23:28 10° SSW 21:28:04 62° ESE 21:33:06 10° NNE
Sylda 4400 3.3 21:27:29 15° WNW 21:29:10 35° N 21:31:27 10° ENE
H-2A R/B 3.5 21:25:48 10° NNW 21:29:35 20° WNW 21:32:12 14° WSW
CZ-2D R/B 3.8 21:26:38 10° NNE 21:30:50 69° ESE 21:34:56 10° S
Cosmos 158 Rocket 4.4 21:25:42 10° N 21:30:58 67° ENE 21:36:08 10° SSE
GPS 2-14 Rocket1 4.0 21:32:25 15° SW 21:33:24 16° SSW 21:35:32 10° SSE
NOAA 12 4.1 21:30:11 10° N 21:35:24 71° WNW 21:40:40 10° SSW
SL-16 R/B 4.0 21:34:13 10° W 21:40:09 - SW 21:34:56 11° W
COSMOS 2455 4.4 21:34:57 12° W 21:37:45 16° WNW 21:41:22 10° NNW
CZ-2D R/B 4.3 21:35:29 10° NNE 21:38:55 45° E 21:42:21 10° S
H-2A R/B 4.0 21:37:25 10° NW 21:39:31 16° WNW 21:41:09 12° WSW
Cosmos 2333 4.4 21:34:25 10° NNW 21:39:58 51° WSW 21:45:33 10° S
BlueWalker 3 3.9 21:37:01 10° S 21:40:10 25° ESE 21:43:18 10° ENE
Cosmos 292 Rocket 3.7 21:35:54 10° SSW 21:40:38 88° E 21:45:19 10° NNE
Cosmos 2219 3.2 21:37:52 10° SSW 21:43:36 79° WNW 21:49:16 10° NNE
Ariane H10+ 3.0 21:42:39 10° SW 21:43:44 12° S 21:44:46 10° SSE
ARIANE 5 R/B 3.2 21:41:27 11° W 21:44:33 50° S 21:51:39 10° ESE
ARIANE 5 R/B 3.1 21:43:52 10° N 21:48:25 36° WNW 21:52:58 10° SW
Lacrosse 5 rocket 2.6 21:45:53 10° N 21:49:19 39° ENE 21:52:40 10° SE
ARGOS 3.9 21:45:36 10° NNW 21:50:18 32° WNW 21:55:03 10° SW
SJ-12 3.9 21:46:48 10° N 21:50:37 55° WNW 21:54:29 10° SSW
COSMOS 2428 3.8 21:46:25 10° N 21:51:53 50° ENE 21:57:22 10° SSE
Chandra Rocket (1) 3.2 21:48:38 10° WNW 21:52:29 56° SSW 22:04:45 10° SE
Ariane H10 2.9 21:48:27 10° W 21:53:30 75° S 21:55:50 10° E
Aureole 1 Rocket 3.5 21:50:39 10° SW 21:54:26 31° W 21:57:33 10° NNW
SL-08 RB Rocket 4.4 21:51:44 10° NNW 21:55:40 32° WNW 21:59:37 10° SW
RESURS DK-1 3.0 21:52:19 10° NW 21:55:56 32° WSW 21:59:34 10° S
Cosmos 2219 Rocket 2.4 21:50:53 10° NNW 21:56:20 51° WSW 22:01:49 10° S
Cosmos 839 Rocket 4.1 21:50:43 10° NNW 21:56:40 57° WSW 22:03:06 10° S
Cosmos 2263 Rocket 2.3 21:51:44 10° SSW 21:57:25 88° ESE 22:03:04 10° NNE
Milstar 3 Cent rocket 4.0 21:49:27 10° WSW 22:06:11 70° NNW 22:13:42 10° NE
